星链-35315(STARLINK-35315)

导读 | 豆包AI

STARLINK-35315是美国SpaceX公司星链(Starlink)星座的一员,于2025年11月19日发射入轨。星链计划旨在构建全球低轨宽带通信网络,为偏远地区、海上和航空场景提供稳定互联网接入。该卫星属于量产型低轨通信卫星,采用成熟的相控阵通信技术,助力星链进一步扩展全球覆盖范围,推动卫星互联网发展,但也引发太空安全等方面的争议。

基本信息
目录编号:
66543
目录名称:
STARLINK-35315
国际标识:
2025-265AD
轨道中心:
EARTH
卫星名称:
星链-35315
卫星全名:
星链-35315(STARLINK-35315)
卫星状态:
在轨 (已飞行115 天)
发射日期:
2025-11-19 UTC
国别 :
美国 (US)
星等 :
--
轨道信息
数据来源 国际轨道数据
星历时间: 2026-03-13T21:35:12+0800
13小时前
查看轨道信息
半长轴: 6861.104km
偏心率: 0.0001434
轨道倾角: 43.003°
近地点辐角 236.405°
升交点赤经 256.265°
平近点角 123.667°
近地点: 481.983km
远地点: 483.951km
周期: 94.265分钟
每日圈数: 15.276075
详细信息
固有亮度:
5
最大亮度:
2.5
卫星平台:
Starlink V1.0
覆盖范围:
全球
运营商:
太空探索技术公司
运营商所在国:
美国
制造商(研发单位):
太空探索技术公司
制造商所在国:
美国
使用方式:
暂无
卫星简介
Starlink 计划是 SpaceX 推出的全球卫星互联网项目,通过发射低轨道卫星,为全球尤其是偏远地区提供高速、低延迟的互联网服务。自 2019 年起,Starlink 已部署数千颗卫星,旨在缩小全球数字鸿沟,推动互联网普及。该项目还为军事、航空等行业提供通信支持,带来广泛经济效益。
2D轨道图
3D轨道图
轨道高度分析图
轨道倾角分析图
轨道综合分析图
查看轨道综合分析图